Orbital Elements at Epoch 2459000.5 (2020-May-31.0) TDB
Reference: JPL 20 (heliocentric ecliptic J2000)
Element | Value | Uncertainty (1-sigma) | Units |
e | .05588571564406433 | 4.3902e-08 | |
a | 2.336518178126939 | 9.2228e-09 | au |
q | 2.20594018762695 | 1.0136e-07 | au |
i | 7.986501241255118 | 4.6059e-06 | deg |
node | 13.07961255423968 | 2.6307e-05 | deg |
peri | 141.600499072477 | 4.1533e-05 | deg |
M | 139.9643581634482 | 3.2947e-05 | deg |
tp | 2458493.314149206339 (2019-Jan-09.81414921) | 0.00011856 | TDB |
period | 1304.5242994827 3.57 | 7.7239e-06 2.115e-08 | d yr |
n | .2759626632809794 | 1.6339e-09 | deg/d |
Q | 2.467096168626929 | 9.7382e-09 | au |
|
| | Orbit Determination Parameters
Additional Information
|